[[{"header":{"parameterUnit":"m.s-1","parameterCategory":1,"la1":30.2991,"la2":30.254,"lo1":-89.0895,"lo2":-89.0444,"dy":0.0017,"dx":0.0017,"nx":28,"ny":28,"refTime":"2023-04-28T21:00:00:Z","depth":0,"parameterNumber":2,"parameterNumberName":"U-component_of_WINDS"},"data":[0,0,0,0,0,0,0,0,0,0,0,0,0,0,0,0,0,0,0,0,0,0,0,0,0,0,0,0,0,0,0,0,0,0,0,0,0,0,0,0,0,0,0,0,0,0,0,0,0,0,0,0,0,0,0,0,0,0,3.2816,3.2816,0,3.2782,3.2782,3.2782,3.2776,3.2776,3.2776,3.2777,3.2742,3.2741,3.274,0,0,0,0,0,0,0,0,0,0,0,0,0,3.2878,3.2877,3.2816,3.2816,3.2816,3.2782,3.2782,3.2782,3.2776,3.2776,3.2777,3.2777,3.2742,3.2741,3.2739,0,0,0,0,0,0,0,0,0,0,0,0,0,3.2848,3.2876,3.2816,3.2809,3.2808,3.2783,3.2782,3.2781,3.2776,3.2776,3.2777,3.2777,3.2743,3.2741,3.2739,3.2719,0,0,3.2734,3.2733,0,0,0,0,0,0,0,0,3.285,3.2846,3.281,3.2809,3.2808,3.2784,3.2791,3.2761,3.2776,3.2788,3.2777,3.2777,3.2756,3.2753,3.2745,3.2718,3.2716,3.2734,3.2733,3.2732,3.2731,0,0,0,0,0,0,0,3.2852,3.2847,3.2803,3.281,3.2808,3.2807,3.2804,3.2785,3.277,3.2787,3.2786,3.2782,3.2755,3.2747,3.2745,3.2716,3.2734,3.2732,3.2731,3.273,3.2673,3.2672,0,0,0,0,0,0,3.2855,3.2849,3.2804,3.2802,3.283,3.2806,3.2802,3.2791,3.277,3.2767,3.2782,3.2782,3.275,3.2747,3.2743,3.272,3.2732,3.273,3.2729,3.2673,3.2673,3.2672,0,0,0,0,0,0,3.2857,3.2851,3.2805,3.2825,3.2819,3.2804,3.2793,3.279,3.2782,3.2766,3.2764,3.2777,3.275,3.2746,3.2726,3.2719,3.2729,3.2728,3.2674,3.2673,3.2672,3.2672,0,0,0,0,0,0,3.2858,3.2852,3.2844,3.2825,3.2818,3.2788,3.2792,3.2789,3.2779,3.2779,3.2761,3.2758,3.275,3.2729,3.2724,3.2716,3.2726,3.2674,3.2673,3.2673,3.2673,3.2672,3.2671,0,0,0,0,0,3.2861,3.2844,3.2843,3.2838,3.2808,3.2788,3.2784,3.2775,3.2779,3.2771,3.2761,3.2758,3.272,3.2727,3.2722,3.2713,3.2675,3.2674,3.2673,3.2673,3.2672,3.2671,0,0,0,0,0,0,3.2861,3.2842,3.284,3.2817,3.2804,3.2787,3.2776,3.2774,3.2759,3.276,3.275,3.2746,3.2727,3.2718,3.2725,3.2694,3.2698,3.2696,3.27,3.2699,3.2698,3.27,3.2725,0,0,0,0,0,3.2859,3.2844,3.2828,3.2809,3.2803,3.2791,3.2782,3.2777,3.2763,3.2757,3.2745,3.2732,3.2717,3.2707,3.2693,3.2672,3.2669,3.2664,3.2663,3.2662,3.266,3.265,3.2648,3.2669,3.2669,3.2669,0,0,3.2854,3.2841,3.2832,3.2809,3.2799,3.2784,3.2786,3.277,3.2759,3.2754,3.2735,3.2727,3.2711,3.2691,3.2682,3.2683,3.2654,3.2661,3.266,3.2659,3.2649,3.2647,3.2645,3.2668,3.2668,3.2668,0,0,3.2837,3.2826,3.281,3.2799,3.2784,3.2776,3.2772,3.2755,3.275,3.273,3.2727,3.2715,3.2689,3.2678,3.267,3.2652,3.265,3.2648,3.2642,3.2632,3.263,3.2629,3.2623,3.2621,3.2646,3.2646,3.2646,0,3.2832,3.281,3.2802,3.2787,3.2777,3.2773,3.2758,3.2748,3.2728,3.2722,3.2724,3.2693,3.2682,3.2661,3.2657,3.265,3.2646,3.2649,3.2631,3.263,3.2628,3.2623,3.2621,3.2646,3.2646,3.2646,3.2646,0,3.2806,3.279,3.278,3.2761,3.2751,3.2736,3.2726,3.2717,3.2713,3.2706,3.2687,3.2675,3.2658,3.2653,3.2648,3.2631,3.2633,3.2633,3.2637,3.2626,3.2621,3.2619,3.2646,3.2646,3.2646,3.2646,0,0,3.2786,3.2766,3.2762,3.2755,3.2738,3.2726,3.2711,3.2696,3.2688,3.2675,3.2664,3.2643,3.2644,3.2634,3.2629,3.2621,3.2609,3.2623,3.2622,3.2621,3.2591,3.2591,3.2588,3.2608,3.2608,3.2607,3.2592,0,3.2768,3.2741,3.2735,3.2713,3.2699,3.2697,3.2684,3.2673,3.2666,3.2654,3.2647,3.2633,3.2635,3.2629,3.2621,3.2612,3.2603,3.2613,3.2597,3.2597,3.2601,3.2585,3.2585,3.2571,3.259,3.259,3.259,0,3.2742,3.273,3.2706,3.2693,3.2688,3.2676,3.2663,3.2651,3.2639,3.2635,3.2625,3.2622,3.2608,3.2613,3.2594,3.2601,3.2594,3.2589,3.2589,3.2587,3.2592,3.2583,3.2566,3.2564,3.2586,3.2586,3.2587,0,3.2732,3.2709,3.2693,3.2686,3.267,3.2663,3.2656,3.2644,3.2636,3.2625,3.2619,3.2606,3.2599,3.2589,3.2582,3.2586,3.2564,3.2568,3.2561,3.2561,3.2556,3.2556,3.2538,3.2551,3.2551,3.2551,3.2551,0,3.2712,3.2697,3.2688,3.2678,3.2662,3.2656,3.2641,3.2634,3.2625,3.2614,3.2611,3.26,3.2592,3.2581,3.2576,3.2562,3.2559,3.2555,3.2554,3.2556,3.2556,3.2551,3.2552,3.2551,3.2551,3.2551,3.2551,0,3.2697,3.2689,3.2672,3.2659,3.2656,3.2645,3.2634,3.2625,3.2619,3.2605,3.2602,3.2592,3.258,3.2573,3.2556,3.2553,3.2537,3.2536,3.2541,3.2541,3.2534,3.2535,3.2511,3.2508,3.2524,3.2524,3.2524,0,3.2684,3.2674,3.2661,3.2653,3.2647,3.2635,3.2627,3.2621,3.2613,3.26,3.2592,3.2579,3.2569,3.2549,3.2541,3.2529,3.2528,3.2521,3.2526,3.2528,3.2528,3.2529,3.2529,3.2519,3.2519,3.2519,3.2519,0,3.2663,3.2661,3.265,3.2638,3.2629,3.2619,3.2609,3.2604,3.2596,3.2588,3.2575,3.2567,3.2551,3.2539,3.2527,3.252,3.2519,3.2518,3.2515,3.2517,3.252,3.2519,3.2539,3.2518,3.2518,3.2518,3.2518,3.2518,3.265,3.2641,3.2631,3.2619,3.2612,3.2603,3.2594,3.2588,3.2577,3.2564,3.2562,3.2549,3.2539,3.2522,3.2516,3.2506,3.2507,3.2504,3.2503,3.2502,3.2503,3.2522,3.2504,3.2504,3.2504,3.2504,3.2504,0,3.2629,3.2623,3.2613,3.26,3.2591,3.2591,3.2581,3.2574,3.2562,3.2554,3.2544,3.253,3.2519,3.2511,3.25,3.2493,3.2493,3.2491,3.2491,3.249,3.2502,3.2505,3.2492,3.2492,3.2492,3.2492,3.2492,3.2492,3.2618,3.2603,3.26,3.2583,3.2577,3.2564,3.2559,3.2551,3.2545,3.253,3.2521,3.2516,3.2508,3.2496,3.2486,3.2484,3.248,3.2479,3.2477,3.2488,3.2489,3.249,3.2493,3.2478,3.2478,3.2466,3.2466,3.2466]},{"header":{"parameterUnit":"m.s-1","parameterCategory":1,"la1":30.2991,"la2":30.254,"lo1":-89.0895,"lo2":-89.0444,"dy":0.0017,"dx":0.0017,"nx":28,"ny":28,"refTime":"2023-04-28T21:00:00:Z","depth":0,"parameterNumber":3,"parameterNumberName":"V-component_of_WINDS"},"data":[0,0,0,0,0,0,0,0,0,0,0,0,0,0,0,0,0,0,0,0,0,0,0,0,0,0,0,0,0,0,0,0,0,0,0,0,0,0,0,0,0,0,0,0,0,0,0,0,0,0,0,0,0,0,0,0,0,0,0.8107,0.8107,0,0.8146,0.8146,0.8147,0.815,0.815,0.8149,0.8149,0.8191,0.8192,0.8194,0,0,0,0,0,0,0,0,0,0,0,0,0,0.8035,0.8036,0.8107,0.8107,0.8108,0.8146,0.8146,0.8147,0.815,0.815,0.8149,0.8149,0.8191,0.8192,0.8194,0,0,0,0,0,0,0,0,0,0,0,0,0,0.8069,0.8036,0.8107,0.8114,0.8115,0.8146,0.8146,0.8147,0.815,0.815,0.8149,0.8148,0.819,0.8192,0.8194,0.8221,0,0,0.8201,0.8202,0,0,0,0,0,0,0,0,0.8067,0.8072,0.8112,0.8113,0.8115,0.8142,0.8136,0.8172,0.815,0.8137,0.8149,0.8148,0.8175,0.8179,0.8188,0.8223,0.8225,0.8202,0.8203,0.8204,0.8205,0,0,0,0,0,0,0,0.8065,0.807,0.8122,0.8113,0.8114,0.8115,0.8119,0.8143,0.8159,0.8138,0.8138,0.8143,0.8176,0.8185,0.8189,0.8226,0.8201,0.8204,0.8205,0.8206,0.8281,0.8282,0,0,0,0,0,0,0.8061,0.8068,0.8121,0.8123,0.8089,0.8117,0.8121,0.8134,0.8159,0.8162,0.8143,0.8143,0.8182,0.8186,0.819,0.8221,0.8204,0.8206,0.8207,0.8281,0.8281,0.8282,0,0,0,0,0,0,0.8059,0.8066,0.8119,0.8096,0.8103,0.8119,0.8133,0.8135,0.8145,0.8163,0.8166,0.815,0.8182,0.8187,0.8212,0.8223,0.8207,0.8209,0.828,0.8281,0.8282,0.8284,0,0,0,0,0,0,0.8057,0.8065,0.8076,0.8096,0.8104,0.8141,0.8134,0.8136,0.8148,0.8148,0.817,0.8173,0.8181,0.8209,0.8215,0.8225,0.8211,0.8279,0.828,0.8281,0.8283,0.8285,0.8287,0,0,0,0,0,0.8055,0.8076,0.8076,0.8083,0.8118,0.8142,0.8146,0.8155,0.8149,0.816,0.8171,0.8173,0.822,0.8212,0.8218,0.823,0.8279,0.828,0.8281,0.8283,0.8285,0.8287,0,0,0,0,0,0,0.8059,0.8079,0.808,0.8108,0.8123,0.8142,0.8156,0.8158,0.8175,0.8174,0.8184,0.8189,0.8214,0.8224,0.8214,0.8255,0.8249,0.8252,0.8247,0.825,0.8251,0.8248,0.8213,0,0,0,0,0,0.8062,0.808,0.8097,0.8121,0.8128,0.8141,0.8152,0.8156,0.8173,0.8179,0.8193,0.8208,0.8227,0.8239,0.8257,0.8284,0.8288,0.8295,0.8297,0.8298,0.8301,0.8313,0.8316,0.8287,0.8287,0.8287,0,0,0.8072,0.8085,0.8096,0.8122,0.8134,0.8151,0.8146,0.8166,0.8179,0.8183,0.8207,0.8216,0.8235,0.826,0.8273,0.827,0.8309,0.83,0.8301,0.8303,0.8315,0.8318,0.832,0.8288,0.8288,0.8287,0,0,0.8096,0.8109,0.8128,0.814,0.8157,0.8165,0.8169,0.8188,0.8194,0.8218,0.822,0.8235,0.8267,0.8279,0.829,0.8314,0.8316,0.832,0.8329,0.8341,0.8344,0.8346,0.8353,0.8356,0.8322,0.8322,0.8322,0,0.8106,0.8132,0.8139,0.8157,0.8168,0.817,0.8189,0.82,0.8223,0.823,0.8226,0.8264,0.8277,0.8304,0.8309,0.8318,0.8323,0.8318,0.8343,0.8345,0.8347,0.8354,0.8357,0.8323,0.8323,0.8323,0.8323,0,0.8141,0.8159,0.8173,0.8192,0.8205,0.8224,0.8232,0.8244,0.8246,0.8254,0.8277,0.8291,0.8311,0.8318,0.8322,0.8345,0.8342,0.834,0.8334,0.835,0.8356,0.8359,0.8323,0.8323,0.8323,0.8323,0,0,0.8172,0.8192,0.8197,0.8205,0.8222,0.8236,0.8254,0.8272,0.828,0.8295,0.831,0.8335,0.8332,0.8344,0.8349,0.8359,0.8375,0.8356,0.8356,0.8358,0.8399,0.84,0.8403,0.8376,0.8377,0.8377,0.8397,0,0.8198,0.8229,0.8234,0.8261,0.8276,0.8277,0.8292,0.8304,0.8311,0.8324,0.8332,0.8349,0.8345,0.8352,0.8362,0.8371,0.8384,0.837,0.8389,0.839,0.8384,0.8407,0.8408,0.8427,0.84,0.84,0.8401,0,0.8233,0.8246,0.8274,0.8287,0.8293,0.8307,0.8322,0.8335,0.8348,0.8352,0.8363,0.8365,0.8383,0.8375,0.8398,0.8389,0.8396,0.8402,0.8402,0.8405,0.8396,0.8409,0.8433,0.8436,0.8405,0.8405,0.8405,0,0.825,0.8276,0.8295,0.8302,0.8317,0.8326,0.8333,0.8345,0.8354,0.8367,0.8373,0.8388,0.8397,0.8408,0.8414,0.8408,0.8436,0.843,0.8439,0.8439,0.8446,0.8445,0.8471,0.8451,0.8451,0.8451,0.8451,0,0.8279,0.8296,0.8302,0.8314,0.8332,0.8337,0.8355,0.8362,0.8371,0.8384,0.8386,0.8397,0.8405,0.8418,0.8423,0.844,0.8444,0.8447,0.8448,0.8447,0.8446,0.8452,0.8451,0.8452,0.8452,0.8452,0.8452,0,0.8302,0.8307,0.8328,0.8339,0.8343,0.8355,0.8365,0.8376,0.8381,0.8397,0.8401,0.841,0.8424,0.8431,0.845,0.8453,0.8472,0.8473,0.8468,0.8468,0.8477,0.8475,0.8507,0.8511,0.8489,0.8489,0.849,0,0.8319,0.8332,0.8343,0.8351,0.8358,0.8371,0.8379,0.8383,0.8392,0.8406,0.8415,0.8429,0.844,0.8463,0.8471,0.8485,0.8485,0.8495,0.8488,0.8485,0.8484,0.8483,0.8484,0.8497,0.8497,0.8497,0.8498,0,0.8349,0.835,0.8362,0.8373,0.8383,0.8393,0.8403,0.8409,0.8415,0.8424,0.8438,0.8447,0.8464,0.8478,0.8491,0.8498,0.8498,0.8499,0.8502,0.8501,0.8497,0.8498,0.8471,0.8499,0.8499,0.8499,0.8499,0.8499,0.8369,0.8379,0.8387,0.84,0.8407,0.8415,0.8425,0.843,0.8442,0.8455,0.8457,0.8471,0.8481,0.8499,0.8506,0.8517,0.8515,0.8519,0.852,0.8521,0.8521,0.8495,0.8519,0.8519,0.8519,0.8519,0.8519,0,0.8397,0.8402,0.8413,0.8425,0.8434,0.8432,0.8442,0.845,0.8462,0.8471,0.8481,0.8495,0.8508,0.8515,0.8528,0.8535,0.8535,0.8538,0.8537,0.8538,0.8523,0.8518,0.8537,0.8537,0.8537,0.8537,0.8537,0.8537,0.8413,0.8429,0.843,0.8449,0.8454,0.8467,0.8472,0.8479,0.8486,0.8502,0.8511,0.8516,0.8523,0.8536,0.8546,0.8548,0.8552,0.8555,0.8557,0.8542,0.854,0.8538,0.8534,0.8556,0.8556,0.8571,0.8572,0.8572]}]]